Voltar ao catálogo

STARLINK-37556

AtivoComunicaçõesSSO
NORAD 69660·PAYLOAD·🇺🇸 United States

Lançado Jun 21, 2026 de Vandenberg Space Force Base

Loading…

Próximas Passagens (próximas 24 horas)

TLE

AtualizadoSource: CelesTrak SupGP

Época: Sep 14, 2026, 21:08 UTC

1 69660C 26143M   26257.88104167 -.00010707  00000+0 -33242-3 0  2570
2 69660  97.2845 301.0764 0001125  94.2314   7.8773 15.33439921    10

Acompanhe STARLINK-37556 em tempo real com AllMySat

Download on the App Store